Flag for Germany Weather past 2 weeks in Neu-Ulm, Bavaria, Germany

Now
46 °F

Partly sunny.


Feels Like: 41 °F
Forecast: 35 / 54 °F
Wind: 13 mph from Northwest

Location: Laupheim Airport

Current Time: Mar 27, 2015 at 4:38:27 PM

Latest Report: Mar 27, 2015 at 3:20 PM


Visibility: N/A

Pressure: 30.09 "Hg

Humidity: 50%

Dew point: 28 °F

Location of Neu-UlmLocation

Historic Weather in Neu-Ulm — Graph

°F

Neu-Ulm temperature yesterday

Maximum temperature yesterday: 45 °F (at 12:20 AM)
Minimum temperature yesterday: 39 °F (at 5:20 AM)
Average temperature yesterday: 41 °F

Past Weeks' High & Low Weather Summary

 TemperatureHumidityPressure
High61 °F (Mar 18, 2:20 PM)100% (Mar 14, 4:20 AM)30.30 "Hg (Mar 14, 4:20 AM)
Low28 °F (Mar 13, 3:20 AM)31% (Mar 20, 4:20 PM)29.53 "Hg (Mar 25, 2:20 PM)
Average41 °F75%30.03 "Hg
* Reported Mar 12 3:20 PM — Mar 27 3:20 PM, Neu-Ulm, Weather by CustomWeather, © 2015

Note: Actual official high and low records may vary slightly from our data, if they occured in-between our weather recording intervals... More about our weather records

Advertising

Neu-Ulm weather history for previous 24 hours

 ConditionsComfort  
Time TempWeatherWind HumidityBarometerVisibility
3:20 PM
Fri, Mar 27
46 °FPartly sunny.13 mph50%30.09 "HgN/A
2:20 PM46 °FPartly sunny.12 mph50%30.07 "HgN/A
1:20 PM46 °FPartly sunny.10 mph50%30.07 "HgN/A
12:20 PM45 °FPartly sunny.16 mph53%30.07 "HgN/A
12:00 PM46 °FPartly sunny.18 mph53%30.07 "HgN/A
11:20 AM45 °FPartly sunny.17 mph57%30.07 "HgN/A
10:20 AM45 °FScattered clouds.13 mph61%30.04 "HgN/A
9:20 AM43 °FScattered clouds.12 mph76%30.04 "HgN/A
8:20 AM41 °FPassing clouds.9 mph81%30.01 "HgN/A
7:20 AM39 °FOvercast.10 mph87%30.01 "HgN/A
6:20 AM39 °FOvercast.10 mph87%29.95 "HgN/A
5:20 AM39 °FOvercast.8 mph87%29.95 "HgN/A
4:20 AM39 °FOvercast.7 mph87%29.92 "HgN/A
3:20 AM39 °FOvercast.8 mph87%29.92 "HgN/A
2:20 AM39 °FLight rain. Overcast.10 mph87%29.89 "HgN/A
1:20 AM39 °FLight rain. Overcast.9 mph87%29.89 "HgN/A
12:20 AM39 °FPassing clouds.8 mph87%29.89 "HgN/A
11:20 PM
Thu, Mar 26
41 °FLight rain. Passing clouds.13 mph76%29.86 "HgN/A
10:20 PM41 °FPassing clouds.12 mph81%29.86 "HgN/A
9:20 PM41 °FPassing clouds.10 mph81%29.86 "HgN/A
8:20 PM41 °FPassing clouds.10 mph87%29.83 "HgN/A
7:20 PM43 °FOvercast.7 mph81%29.83 "HgN/A
7:00 PM43 °FOvercast.9 mph87%29.83 "HgN/A
6:20 PM43 °FOvercast.8 mph81%29.83 "HgN/A
5:20 PM43 °FOvercast.5 mph81%29.80 "HgN/A
4:20 PM43 °FOvercast.6 mph81%29.80 "HgN/A
Weather by CustomWeather, © 2015

See weather overviewHow to use our weather pages